Year,Month,Day,Hour,Minute,Value (Times are PST for temperature in C)
2012,07,19,00,00,15.80
2012,07,19,00,01,15.80
2012,07,19,00,02,15.80
2012,07,19,00,03,15.70
2012,07,19,00,04,15.70
2012,07,19,00,05,15.70
2012,07,19,00,06,15.70
2012,07,19,00,07,15.70
2012,07,19,00,08,15.70
2012,07,19,00,09,15.70
2012,07,19,00,10,15.70
2012,07,19,00,11,15.70
2012,07,19,00,12,15.60
2012,07,19,00,13,15.60
2012,07,19,00,14,15.60
2012,07,19,00,15,15.60
2012,07,19,00,16,15.60
2012,07,19,00,17,15.60
2012,07,19,00,18,15.60
2012,07,19,00,19,15.50
2012,07,19,00,20,15.50
2012,07,19,00,21,15.50
2012,07,19,00,22,15.50
2012,07,19,00,23,15.40
2012,07,19,00,24,15.40
2012,07,19,00,25,15.40
2012,07,19,00,26,15.40
2012,07,19,00,27,15.40
2012,07,19,00,28,15.40
2012,07,19,00,29,15.40
2012,07,19,00,30,15.40
2012,07,19,00,31,15.30
2012,07,19,00,32,15.30
2012,07,19,00,33,15.30
2012,07,19,00,34,15.30
2012,07,19,00,35,15.30
2012,07,19,00,36,15.30
2012,07,19,00,37,15.30
2012,07,19,00,38,15.30
2012,07,19,00,39,15.20
2012,07,19,00,40,15.20
2012,07,19,00,41,15.20
2012,07,19,00,42,15.20
2012,07,19,00,43,15.20
2012,07,19,00,44,15.20
2012,07,19,00,45,15.10
2012,07,19,00,46,15.10
2012,07,19,00,47,15.10
2012,07,19,00,48,15.10
2012,07,19,00,49,15.10
2012,07,19,00,50,15.10
2012,07,19,00,51,15.00
2012,07,19,00,52,15.00
2012,07,19,00,53,15.00
2012,07,19,00,54,15.00
2012,07,19,00,55,14.90
2012,07,19,00,56,14.90
2012,07,19,00,57,14.90
2012,07,19,00,58,14.90
2012,07,19,00,59,14.90
2012,07,19,01,00,14.80
2012,07,19,01,01,14.80
2012,07,19,01,02,14.80
2012,07,19,01,03,14.80
2012,07,19,01,04,14.80
2012,07,19,01,05,14.80
2012,07,19,01,06,14.80
2012,07,19,01,07,14.70
2012,07,19,01,08,14.70
2012,07,19,01,09,14.70
2012,07,19,01,10,14.70
2012,07,19,01,11,14.70
2012,07,19,01,12,14.60
2012,07,19,01,13,14.60
2012,07,19,01,14,14.60
2012,07,19,01,15,14.60
2012,07,19,01,16,14.60
2012,07,19,01,17,14.50
2012,07,19,01,18,14.50
2012,07,19,01,19,14.50
2012,07,19,01,20,14.50
2012,07,19,01,21,14.50
2012,07,19,01,22,14.40
2012,07,19,01,23,14.40
2012,07,19,01,24,14.40
2012,07,19,01,25,14.40
2012,07,19,01,26,14.40
2012,07,19,01,27,14.40
2012,07,19,01,28,14.40
2012,07,19,01,29,14.40
2012,07,19,01,30,14.40
2012,07,19,01,31,14.40
2012,07,19,01,32,14.40
2012,07,19,01,33,14.30
2012,07,19,01,34,14.30
2012,07,19,01,35,14.30
2012,07,19,01,36,14.30
2012,07,19,01,37,14.30
2012,07,19,01,38,14.30
2012,07,19,01,39,14.30
2012,07,19,01,40,14.30
2012,07,19,01,41,14.30
2012,07,19,01,42,14.20
2012,07,19,01,43,14.20
2012,07,19,01,44,14.20
2012,07,19,01,45,14.10
2012,07,19,01,46,14.00
2012,07,19,01,47,14.00
2012,07,19,01,48,13.90
2012,07,19,01,49,13.90
2012,07,19,01,50,13.80
2012,07,19,01,51,13.80
2012,07,19,01,52,13.80
2012,07,19,01,53,13.80
2012,07,19,01,54,13.70
2012,07,19,01,55,13.70
2012,07,19,01,56,13.70
2012,07,19,01,57,13.70
2012,07,19,01,58,13.60
2012,07,19,01,59,13.60
2012,07,19,02,00,13.60
2012,07,19,02,01,13.60
2012,07,19,02,02,13.60
2012,07,19,02,03,13.60
2012,07,19,02,04,13.60
2012,07,19,02,05,13.60
2012,07,19,02,06,13.50
2012,07,19,02,07,13.50
2012,07,19,02,08,13.50
2012,07,19,02,09,13.50
2012,07,19,02,10,13.50
2012,07,19,02,11,13.40
2012,07,19,02,12,13.40
2012,07,19,02,13,13.40
2012,07,19,02,14,13.40
2012,07,19,02,15,13.40
2012,07,19,02,16,13.40
2012,07,19,02,17,13.30
2012,07,19,02,18,13.30
2012,07,19,02,19,13.30
2012,07,19,02,20,13.30
2012,07,19,02,21,13.20
2012,07,19,02,22,13.20
2012,07,19,02,23,13.20
2012,07,19,02,24,13.20
2012,07,19,02,25,13.20
2012,07,19,02,26,13.10
2012,07,19,02,27,13.10
2012,07,19,02,28,13.10
2012,07,19,02,29,13.10
2012,07,19,02,30,13.00
2012,07,19,02,31,13.00
2012,07,19,02,32,13.00
2012,07,19,02,33,13.00
2012,07,19,02,34,13.00
2012,07,19,02,35,12.90
2012,07,19,02,36,12.90
2012,07,19,02,37,12.90
2012,07,19,02,38,12.90
2012,07,19,02,39,12.90
2012,07,19,02,40,12.90
2012,07,19,02,41,12.90
2012,07,19,02,42,12.80
2012,07,19,02,43,12.80
2012,07,19,02,44,12.80
2012,07,19,02,45,12.80
2012,07,19,02,46,12.80
2012,07,19,02,47,12.80
2012,07,19,02,48,12.80
2012,07,19,02,49,12.80
2012,07,19,02,50,12.80
2012,07,19,02,51,12.80
2012,07,19,02,52,12.80
2012,07,19,02,53,12.80
2012,07,19,02,54,12.80
2012,07,19,02,55,12.80
2012,07,19,02,56,12.70
2012,07,19,02,57,12.70
2012,07,19,02,58,12.70
2012,07,19,02,59,12.70
2012,07,19,03,00,12.70
2012,07,19,03,01,12.70
2012,07,19,03,02,12.70
2012,07,19,03,03,12.60
2012,07,19,03,04,12.60
2012,07,19,03,05,12.60
2012,07,19,03,06,12.60
2012,07,19,03,07,12.60
2012,07,19,03,08,12.60
2012,07,19,03,09,12.60
2012,07,19,03,10,12.60
2012,07,19,03,11,12.50
2012,07,19,03,12,12.50
2012,07,19,03,13,12.50
2012,07,19,03,14,12.50
2012,07,19,03,15,12.50
2012,07,19,03,16,12.40
2012,07,19,03,17,12.40
2012,07,19,03,18,12.40
2012,07,19,03,19,12.40
2012,07,19,03,20,12.40
2012,07,19,03,21,12.40
2012,07,19,03,22,12.40
2012,07,19,03,23,12.40
2012,07,19,03,24,12.40
2012,07,19,03,25,12.30
2012,07,19,03,26,12.30
2012,07,19,03,27,12.30
2012,07,19,03,28,12.30
2012,07,19,03,29,12.30
2012,07,19,03,30,12.30
2012,07,19,03,31,12.30
2012,07,19,03,32,12.30
2012,07,19,03,33,12.30
2012,07,19,03,34,12.30
2012,07,19,03,35,12.30
2012,07,19,03,36,12.30
2012,07,19,03,37,12.30
2012,07,19,03,38,12.30
2012,07,19,03,39,12.20
2012,07,19,03,40,12.20
2012,07,19,03,41,12.20
2012,07,19,03,42,12.20
2012,07,19,03,43,12.20
2012,07,19,03,44,12.20
2012,07,19,03,45,12.20
2012,07,19,03,46,12.20
2012,07,19,03,47,12.20
2012,07,19,03,48,12.20
2012,07,19,03,49,12.10
2012,07,19,03,50,12.10
2012,07,19,03,51,12.10
2012,07,19,03,52,12.10
2012,07,19,03,53,12.10
2012,07,19,03,54,12.10
2012,07,19,03,55,12.10
2012,07,19,03,56,12.10
2012,07,19,03,57,12.10
2012,07,19,03,58,12.10
2012,07,19,03,59,12.10
2012,07,19,04,00,12.00
2012,07,19,04,01,12.00
2012,07,19,04,02,12.00
2012,07,19,04,03,12.00
2012,07,19,04,04,12.00
2012,07,19,04,05,11.90
2012,07,19,04,06,11.90
2012,07,19,04,07,11.90
2012,07,19,04,08,11.90
2012,07,19,04,09,11.90
2012,07,19,04,10,11.90
2012,07,19,04,11,11.90
2012,07,19,04,12,11.90
2012,07,19,04,13,11.90
2012,07,19,04,14,11.90
2012,07,19,04,15,11.90
2012,07,19,04,16,11.90
2012,07,19,04,17,11.80
2012,07,19,04,18,11.80
2012,07,19,04,19,11.80
2012,07,19,04,20,11.80
2012,07,19,04,21,11.80
2012,07,19,04,22,11.80
2012,07,19,04,23,11.80
2012,07,19,04,24,11.80
2012,07,19,04,25,11.80
2012,07,19,04,26,11.80
2012,07,19,04,27,11.70
2012,07,19,04,28,11.70
2012,07,19,04,29,11.70
2012,07,19,04,30,11.70
2012,07,19,04,31,11.70
2012,07,19,04,32,11.70
2012,07,19,04,33,11.70
2012,07,19,04,34,11.70
2012,07,19,04,35,11.70
2012,07,19,04,36,11.70
2012,07,19,04,37,11.60
2012,07,19,04,38,11.60
2012,07,19,04,39,11.60
2012,07,19,04,40,11.60
2012,07,19,04,41,11.60
2012,07,19,04,42,11.60
2012,07,19,04,43,11.60
2012,07,19,04,44,11.60
2012,07,19,04,45,11.60
2012,07,19,04,46,11.60
2012,07,19,04,47,11.60
2012,07,19,04,48,11.60
2012,07,19,04,49,11.60
2012,07,19,04,50,11.60
2012,07,19,04,51,11.60
2012,07,19,04,52,11.50
2012,07,19,04,53,11.50
2012,07,19,04,54,11.50
2012,07,19,04,55,11.50
2012,07,19,04,56,11.50
2012,07,19,04,57,11.50
2012,07,19,04,58,11.50
2012,07,19,04,59,11.40
2012,07,19,05,00,11.40
2012,07,19,05,01,11.40
2012,07,19,05,02,11.40
2012,07,19,05,03,11.40
2012,07,19,05,04,11.40
2012,07,19,05,05,11.40
2012,07,19,05,06,11.40
2012,07,19,05,07,11.40
2012,07,19,05,08,11.40
2012,07,19,05,09,11.40
2012,07,19,05,10,11.40
2012,07,19,05,11,11.40
2012,07,19,05,12,11.30
2012,07,19,05,13,11.30
2012,07,19,05,14,11.30
2012,07,19,05,15,11.30
2012,07,19,05,16,11.30
2012,07,19,05,17,11.30
2012,07,19,05,18,11.30
2012,07,19,05,19,11.30
2012,07,19,05,20,11.30
2012,07,19,05,21,11.30
2012,07,19,05,22,11.30
2012,07,19,05,23,11.30
2012,07,19,05,24,11.30
2012,07,19,05,25,11.30
2012,07,19,05,26,11.30
2012,07,19,05,27,11.30
2012,07,19,05,28,11.20
2012,07,19,05,29,11.20
2012,07,19,05,30,11.20
2012,07,19,05,31,11.20
2012,07,19,05,32,11.20
2012,07,19,05,33,11.20
2012,07,19,05,34,11.20
2012,07,19,05,35,11.20
2012,07,19,05,36,11.20
2012,07,19,05,37,11.20
2012,07,19,05,38,11.20
2012,07,19,05,39,11.20
2012,07,19,05,40,11.20
2012,07,19,05,41,11.20
2012,07,19,05,42,11.20
2012,07,19,05,43,11.10
2012,07,19,05,44,11.10
2012,07,19,05,45,11.10
2012,07,19,05,46,11.10
2012,07,19,05,47,11.10
2012,07,19,05,48,11.10
2012,07,19,05,49,11.10
2012,07,19,05,50,11.10
2012,07,19,05,51,11.10
2012,07,19,05,52,11.10
2012,07,19,05,53,11.10
2012,07,19,05,54,11.10
2012,07,19,05,55,11.10
2012,07,19,05,56,11.10
2012,07,19,05,57,11.10
2012,07,19,05,58,11.10
2012,07,19,05,59,11.10
2012,07,19,06,00,11.10
2012,07,19,06,01,11.10
2012,07,19,06,02,11.10
2012,07,19,06,03,11.10
2012,07,19,06,04,11.10
2012,07,19,06,05,11.10
2012,07,19,06,06,11.10
2012,07,19,06,07,11.10
2012,07,19,06,08,11.10
2012,07,19,06,09,11.10
2012,07,19,06,10,11.10
2012,07,19,06,11,11.10
2012,07,19,06,12,11.10
2012,07,19,06,13,11.10
2012,07,19,06,14,11.10
2012,07,19,06,15,11.10
2012,07,19,06,16,11.10
2012,07,19,06,17,11.10
2012,07,19,06,18,11.10
2012,07,19,06,19,11.10
2012,07,19,06,20,11.10
2012,07,19,06,21,11.10
2012,07,19,06,22,11.10
2012,07,19,06,23,11.10
2012,07,19,06,24,11.10
2012,07,19,06,25,11.10
2012,07,19,06,26,11.10
2012,07,19,06,27,11.10
2012,07,19,06,28,11.10
2012,07,19,06,29,11.10
2012,07,19,06,30,11.10
2012,07,19,06,31,11.10
2012,07,19,06,32,11.10
2012,07,19,06,33,11.10
2012,07,19,06,34,11.10
2012,07,19,06,35,11.10
2012,07,19,06,36,11.10
2012,07,19,06,37,11.10
2012,07,19,06,38,11.10
2012,07,19,06,39,11.10
2012,07,19,06,40,11.10
2012,07,19,06,41,11.10
2012,07,19,06,42,11.20
2012,07,19,06,43,11.20
2012,07,19,06,44,11.20
2012,07,19,06,45,11.20
2012,07,19,06,46,11.20
2012,07,19,06,47,11.20
2012,07,19,06,48,11.20
2012,07,19,06,49,11.20
2012,07,19,06,50,11.20
2012,07,19,06,51,11.20
2012,07,19,06,52,11.20
2012,07,19,06,53,11.20
2012,07,19,06,54,11.20
2012,07,19,06,55,11.20
2012,07,19,06,56,11.20
2012,07,19,06,57,11.20
2012,07,19,06,58,11.20
2012,07,19,06,59,11.30
2012,07,19,07,00,11.30
2012,07,19,07,01,11.30
2012,07,19,07,02,11.40
2012,07,19,07,03,11.40
2012,07,19,07,04,11.50
2012,07,19,07,05,11.60
2012,07,19,07,06,11.60
2012,07,19,07,07,11.70
2012,07,19,07,08,11.80
2012,07,19,07,09,11.80
2012,07,19,07,10,11.90
2012,07,19,07,11,12.00
2012,07,19,07,12,12.00
2012,07,19,07,13,12.10
2012,07,19,07,14,12.20
2012,07,19,07,15,12.20
2012,07,19,07,16,12.30
2012,07,19,07,17,12.30
2012,07,19,07,18,12.40
2012,07,19,07,19,12.50
2012,07,19,07,20,12.50
2012,07,19,07,21,12.60
2012,07,19,07,22,12.60
2012,07,19,07,23,12.60
2012,07,19,07,24,12.60
2012,07,19,07,25,12.70
2012,07,19,07,26,12.70
2012,07,19,07,27,12.80
2012,07,19,07,28,12.80
2012,07,19,07,29,12.90
2012,07,19,07,30,12.90
2012,07,19,07,31,13.00
2012,07,19,07,32,13.00
2012,07,19,07,33,13.10
2012,07,19,07,34,13.20
2012,07,19,07,35,13.20
2012,07,19,07,36,13.30
2012,07,19,07,37,13.40
2012,07,19,07,38,13.50
2012,07,19,07,39,13.60
2012,07,19,07,40,13.70
2012,07,19,07,41,13.80
2012,07,19,07,42,13.90
2012,07,19,07,43,14.00
2012,07,19,07,44,14.10
2012,07,19,07,45,14.20
2012,07,19,07,46,14.30
2012,07,19,07,47,14.40
2012,07,19,07,48,14.40
2012,07,19,07,49,14.40
2012,07,19,07,50,14.40
2012,07,19,07,51,14.40
2012,07,19,07,52,14.40
2012,07,19,07,53,14.40
2012,07,19,07,54,14.40
2012,07,19,07,55,14.40
2012,07,19,07,56,14.40
2012,07,19,07,57,14.40
2012,07,19,07,58,14.30
2012,07,19,07,59,14.30
2012,07,19,08,00,14.30
2012,07,19,08,01,14.30
2012,07,19,08,02,14.30
2012,07,19,08,03,14.30
2012,07,19,08,04,14.30
2012,07,19,08,05,14.30
2012,07,19,08,06,14.30
2012,07,19,08,07,14.30
2012,07,19,08,08,14.30
2012,07,19,08,09,14.30
2012,07,19,08,10,14.40
2012,07,19,08,11,14.60
2012,07,19,08,12,14.70
2012,07,19,08,13,14.80
2012,07,19,08,14,14.90
2012,07,19,08,15,15.00
2012,07,19,08,16,15.20
2012,07,19,08,17,15.30
2012,07,19,08,18,15.40
2012,07,19,08,19,15.50
2012,07,19,08,20,15.70
2012,07,19,08,21,15.80
2012,07,19,08,22,15.90
2012,07,19,08,23,16.10
2012,07,19,08,24,16.20
2012,07,19,08,25,16.30
2012,07,19,08,26,16.40
2012,07,19,08,27,16.40
2012,07,19,08,28,16.50
2012,07,19,08,29,16.60
2012,07,19,08,30,16.60
2012,07,19,08,31,16.70
2012,07,19,08,32,16.70
2012,07,19,08,33,16.70
2012,07,19,08,34,16.70
2012,07,19,08,35,16.60
2012,07,19,08,36,16.60
2012,07,19,08,37,16.60
2012,07,19,08,38,16.60
2012,07,19,08,39,16.50
2012,07,19,08,40,16.40
2012,07,19,08,41,16.30
2012,07,19,08,42,16.20
2012,07,19,08,43,16.10
2012,07,19,08,44,16.00
2012,07,19,08,45,16.00
2012,07,19,08,46,16.00
2012,07,19,08,47,16.00
2012,07,19,08,48,16.00
2012,07,19,08,49,16.00
2012,07,19,08,50,16.10
2012,07,19,08,51,16.10
2012,07,19,08,52,16.10
2012,07,19,08,53,16.10
2012,07,19,08,54,16.20
2012,07,19,08,55,16.20
2012,07,19,08,56,16.20
2012,07,19,08,57,16.20
2012,07,19,08,58,16.30
2012,07,19,08,59,16.40
2012,07,19,09,00,16.50
2012,07,19,09,01,16.60
2012,07,19,09,02,16.70
2012,07,19,09,03,16.80
2012,07,19,09,04,17.00
2012,07,19,09,05,17.10
2012,07,19,09,06,17.20
2012,07,19,09,07,17.30
2012,07,19,09,08,17.50
2012,07,19,09,09,17.60
2012,07,19,09,10,17.70
2012,07,19,09,11,17.80
2012,07,19,09,12,17.90
2012,07,19,09,13,18.00
2012,07,19,09,14,18.00
2012,07,19,09,15,18.10
2012,07,19,09,16,18.20
2012,07,19,09,17,18.10
2012,07,19,09,18,18.00
2012,07,19,09,19,17.90
2012,07,19,09,20,17.90
2012,07,19,09,21,17.80
2012,07,19,09,22,17.80
2012,07,19,09,23,17.70
2012,07,19,09,24,17.70
2012,07,19,09,25,17.70
2012,07,19,09,26,17.80
2012,07,19,09,27,17.80
2012,07,19,09,28,17.80
2012,07,19,09,29,17.90
2012,07,19,09,30,17.90
2012,07,19,09,31,18.00
2012,07,19,09,32,18.00
2012,07,19,09,33,18.00
2012,07,19,09,34,18.10
2012,07,19,09,35,18.10
2012,07,19,09,36,18.10
2012,07,19,09,37,18.20
2012,07,19,09,38,18.20
2012,07,19,09,39,18.30
2012,07,19,09,40,18.30
2012,07,19,09,41,18.40
2012,07,19,09,42,18.40
2012,07,19,09,43,18.50
2012,07,19,09,44,18.60
2012,07,19,09,45,18.60
2012,07,19,09,46,18.70
2012,07,19,09,47,18.80
2012,07,19,09,48,19.00
2012,07,19,09,49,19.10
2012,07,19,09,50,19.20
2012,07,19,09,51,19.20
2012,07,19,09,52,19.30
2012,07,19,09,53,19.40
2012,07,19,09,54,19.50
2012,07,19,09,55,19.50
2012,07,19,09,56,19.60
2012,07,19,09,57,19.50
2012,07,19,09,58,19.40
2012,07,19,09,59,19.30
2012,07,19,10,00,19.30
2012,07,19,10,01,19.30
2012,07,19,10,02,19.30
2012,07,19,10,03,19.30
2012,07,19,10,04,19.40
2012,07,19,10,05,19.50
2012,07,19,10,06,19.50
2012,07,19,10,07,19.60
2012,07,19,10,08,19.70
2012,07,19,10,09,19.70
2012,07,19,10,10,19.70
2012,07,19,10,11,19.80
2012,07,19,10,12,19.80
2012,07,19,10,13,19.80
2012,07,19,10,14,19.80
2012,07,19,10,15,19.80
2012,07,19,10,16,19.80
2012,07,19,10,17,19.80
2012,07,19,10,18,19.80
2012,07,19,10,19,19.80
2012,07,19,10,20,19.80
2012,07,19,10,21,19.90
2012,07,19,10,22,20.00
2012,07,19,10,23,20.10
2012,07,19,10,24,20.20
2012,07,19,10,25,20.30
2012,07,19,10,26,20.40
2012,07,19,10,27,20.50
2012,07,19,10,28,20.60
2012,07,19,10,29,20.70
2012,07,19,10,30,20.80
2012,07,19,10,31,20.90
2012,07,19,10,32,20.90
2012,07,19,10,33,21.00
2012,07,19,10,34,21.10
2012,07,19,10,35,21.20
2012,07,19,10,36,21.30
2012,07,19,10,37,21.40
2012,07,19,10,38,21.40
2012,07,19,10,39,21.50
2012,07,19,10,40,21.50
2012,07,19,10,41,21.60
2012,07,19,10,42,21.60
2012,07,19,10,43,21.60
2012,07,19,10,44,21.60
2012,07,19,10,45,21.50
2012,07,19,10,46,21.50
2012,07,19,10,47,21.40
2012,07,19,10,48,21.40
2012,07,19,10,49,21.50
2012,07,19,10,50,21.50
2012,07,19,10,51,21.60
2012,07,19,10,52,21.60
2012,07,19,10,53,21.80
2012,07,19,10,54,21.90
2012,07,19,10,55,21.90
2012,07,19,10,56,22.00
2012,07,19,10,57,22.10
2012,07,19,10,58,22.10
2012,07,19,10,59,22.00
2012,07,19,11,00,22.00
2012,07,19,11,01,22.00
2012,07,19,11,02,22.10
2012,07,19,11,03,22.10
2012,07,19,11,04,22.20
2012,07,19,11,05,22.30
2012,07,19,11,06,22.40
2012,07,19,11,07,22.60
2012,07,19,11,08,22.70
2012,07,19,11,09,22.90
2012,07,19,11,10,23.00
2012,07,19,11,11,23.20
2012,07,19,11,12,23.30
2012,07,19,11,13,23.30
2012,07,19,11,14,23.30
2012,07,19,11,15,23.30
2012,07,19,11,16,23.30
2012,07,19,11,17,23.30
2012,07,19,11,18,23.30
2012,07,19,11,19,23.20
2012,07,19,11,20,23.20
2012,07,19,11,21,23.30
2012,07,19,11,22,23.30
2012,07,19,11,23,23.30
2012,07,19,11,24,23.30
2012,07,19,11,25,23.20
2012,07,19,11,26,23.10
2012,07,19,11,27,23.10
2012,07,19,11,28,23.00
2012,07,19,11,29,23.00
2012,07,19,11,30,23.00
2012,07,19,11,31,23.10
2012,07,19,11,32,23.20
2012,07,19,11,33,23.30
2012,07,19,11,34,23.30
2012,07,19,11,35,23.20
2012,07,19,11,36,23.20
2012,07,19,11,37,23.10
2012,07,19,11,38,23.10
2012,07,19,11,39,23.20
2012,07,19,11,40,23.30
2012,07,19,11,41,23.40
2012,07,19,11,42,23.60
2012,07,19,11,43,23.70
2012,07,19,11,44,23.70
2012,07,19,11,45,23.80
2012,07,19,11,46,23.80
2012,07,19,11,47,23.90
2012,07,19,11,48,23.90
2012,07,19,11,49,23.90
2012,07,19,11,50,23.90
2012,07,19,11,51,23.90
2012,07,19,11,52,23.90
2012,07,19,11,53,24.00
2012,07,19,11,54,24.00
2012,07,19,11,55,24.00
2012,07,19,11,56,23.90
2012,07,19,11,57,23.90
2012,07,19,11,58,23.80
2012,07,19,11,59,23.80
2012,07,19,12,00,23.70
2012,07,19,12,01,23.70
2012,07,19,12,02,23.80
2012,07,19,12,03,23.90
2012,07,19,12,04,23.90
2012,07,19,12,05,23.90
2012,07,19,12,06,24.00
2012,07,19,12,07,24.00
2012,07,19,12,08,24.00
2012,07,19,12,09,24.10
2012,07,19,12,10,24.10
2012,07,19,12,11,24.10
2012,07,19,12,12,24.10
2012,07,19,12,13,24.10
2012,07,19,12,14,24.10
2012,07,19,12,15,24.10
2012,07,19,12,16,24.10
2012,07,19,12,17,24.10
2012,07,19,12,18,24.10
2012,07,19,12,19,24.10
2012,07,19,12,20,24.00
2012,07,19,12,21,24.00
2012,07,19,12,22,24.00
2012,07,19,12,23,24.10
2012,07,19,12,24,24.10
2012,07,19,12,25,24.10
2012,07,19,12,26,24.20
2012,07,19,12,27,24.20
2012,07,19,12,28,24.20
2012,07,19,12,29,24.20
2012,07,19,12,30,24.20
2012,07,19,12,31,24.30
2012,07,19,12,32,24.30
2012,07,19,12,33,24.30
2012,07,19,12,34,24.30
2012,07,19,12,35,24.30
2012,07,19,12,36,24.30
2012,07,19,12,37,24.30
2012,07,19,12,38,24.30
2012,07,19,12,39,24.30
2012,07,19,12,40,24.40
2012,07,19,12,41,24.40
2012,07,19,12,42,24.40
2012,07,19,12,43,24.40
2012,07,19,12,44,24.40
2012,07,19,12,45,24.30
2012,07,19,12,46,24.30
2012,07,19,12,47,24.30
2012,07,19,12,48,24.40
2012,07,19,12,49,24.40
2012,07,19,12,50,24.40
2012,07,19,12,51,24.50
2012,07,19,12,52,24.50
2012,07,19,12,53,24.50
2012,07,19,12,54,24.60
2012,07,19,12,55,24.60
2012,07,19,12,56,24.60
2012,07,19,12,57,24.70
2012,07,19,12,58,24.70
2012,07,19,12,59,24.80
2012,07,19,13,00,24.80
2012,07,19,13,01,24.80
2012,07,19,13,02,24.80
2012,07,19,13,03,24.90
2012,07,19,13,04,24.90
2012,07,19,13,05,24.90
2012,07,19,13,06,24.90
2012,07,19,13,07,24.80
2012,07,19,13,08,24.90
2012,07,19,13,09,24.90
2012,07,19,13,10,24.90
2012,07,19,13,11,25.00
2012,07,19,13,12,25.10
2012,07,19,13,13,25.20
2012,07,19,13,14,25.20
2012,07,19,13,15,25.30
2012,07,19,13,16,25.40
2012,07,19,13,17,25.40
2012,07,19,13,18,25.40
2012,07,19,13,19,25.40
2012,07,19,13,20,25.40
2012,07,19,13,21,25.40
2012,07,19,13,22,25.40
2012,07,19,13,23,25.40
2012,07,19,13,24,25.40
2012,07,19,13,25,25.40
2012,07,19,13,26,25.40
2012,07,19,13,27,25.50
2012,07,19,13,28,25.50
2012,07,19,13,29,25.50
2012,07,19,13,30,25.60
2012,07,19,13,31,25.60
2012,07,19,13,32,25.60
2012,07,19,13,33,25.60
2012,07,19,13,34,25.60
2012,07,19,13,35,25.60
2012,07,19,13,36,25.50
2012,07,19,13,37,25.50
2012,07,19,13,38,25.50
2012,07,19,13,39,25.50
2012,07,19,13,40,25.40
2012,07,19,13,41,25.50
2012,07,19,13,42,25.50
2012,07,19,13,43,25.50
2012,07,19,13,44,25.60
2012,07,19,13,45,25.60
2012,07,19,13,46,25.70
2012,07,19,13,47,25.80
2012,07,19,13,48,25.80
2012,07,19,13,49,25.90
2012,07,19,13,50,25.90
2012,07,19,13,51,26.00
2012,07,19,13,52,26.00
2012,07,19,13,53,25.90
2012,07,19,13,54,25.90
2012,07,19,13,55,25.90
2012,07,19,13,56,25.90
2012,07,19,13,57,25.90
2012,07,19,13,58,25.90
2012,07,19,13,59,25.80
2012,07,19,14,00,25.80
2012,07,19,14,01,25.80
2012,07,19,14,02,25.80
2012,07,19,14,03,25.80
2012,07,19,14,04,25.80
2012,07,19,14,05,25.80
2012,07,19,14,06,25.70
2012,07,19,14,07,25.70
2012,07,19,14,08,25.70
2012,07,19,14,09,25.70
2012,07,19,14,10,25.70
2012,07,19,14,11,25.60
2012,07,19,14,12,25.70
2012,07,19,14,13,25.70
2012,07,19,14,14,25.70
2012,07,19,14,15,25.80
2012,07,19,14,16,25.80
2012,07,19,14,17,25.90
2012,07,19,14,18,25.90
2012,07,19,14,19,25.80
2012,07,19,14,20,25.80
2012,07,19,14,21,25.70
2012,07,19,14,22,25.70
2012,07,19,14,23,25.80
2012,07,19,14,24,25.80
2012,07,19,14,25,25.80
2012,07,19,14,26,25.90
2012,07,19,14,27,25.90
2012,07,19,14,28,25.90
2012,07,19,14,29,25.80
2012,07,19,14,30,25.80
2012,07,19,14,31,25.80
2012,07,19,14,32,25.80
2012,07,19,14,33,25.80
2012,07,19,14,34,25.80
2012,07,19,14,35,25.80
2012,07,19,14,36,25.80
2012,07,19,14,37,25.80
2012,07,19,14,38,25.80
2012,07,19,14,39,25.70
2012,07,19,14,40,25.70
2012,07,19,14,41,25.70
2012,07,19,14,42,25.80
2012,07,19,14,43,25.80
2012,07,19,14,44,25.80
2012,07,19,14,45,25.80
2012,07,19,14,46,25.80
2012,07,19,14,47,25.80
2012,07,19,14,48,25.80
2012,07,19,14,49,25.70
2012,07,19,14,50,25.70
2012,07,19,14,51,25.60
2012,07,19,14,52,25.60
2012,07,19,14,53,25.60
2012,07,19,14,54,25.60
2012,07,19,14,55,25.60
2012,07,19,14,56,25.60
2012,07,19,14,57,25.60
2012,07,19,14,58,25.60
2012,07,19,14,59,25.70
2012,07,19,15,00,25.70
2012,07,19,15,01,25.60
2012,07,19,15,02,25.60
2012,07,19,15,03,25.60
2012,07,19,15,04,25.60
2012,07,19,15,05,25.60
2012,07,19,15,06,25.60
2012,07,19,15,07,25.60
2012,07,19,15,08,25.60
2012,07,19,15,09,25.60
2012,07,19,15,10,25.70
2012,07,19,15,11,25.70
2012,07,19,15,12,25.80
2012,07,19,15,13,25.80
2012,07,19,15,14,25.80
2012,07,19,15,15,25.70
2012,07,19,15,16,25.60
2012,07,19,15,17,25.60
2012,07,19,15,18,25.60
2012,07,19,15,19,25.70
2012,07,19,15,20,25.70
2012,07,19,15,21,25.70
2012,07,19,15,22,25.80
2012,07,19,15,23,25.80
2012,07,19,15,24,25.90
2012,07,19,15,25,25.90
2012,07,19,15,26,25.90
2012,07,19,15,27,25.90
2012,07,19,15,28,25.90
2012,07,19,15,29,25.90
2012,07,19,15,30,25.80
2012,07,19,15,31,25.80
2012,07,19,15,32,25.70
2012,07,19,15,33,25.70
2012,07,19,15,34,25.70
2012,07,19,15,35,25.70
2012,07,19,15,36,25.70
2012,07,19,15,37,25.80
2012,07,19,15,38,25.80
2012,07,19,15,39,25.80
2012,07,19,15,40,25.80
2012,07,19,15,41,25.90
2012,07,19,15,42,25.90
2012,07,19,15,43,25.90
2012,07,19,15,44,25.90
2012,07,19,15,45,25.90
2012,07,19,15,46,25.90
2012,07,19,15,47,25.80
2012,07,19,15,48,25.80
2012,07,19,15,49,25.90
2012,07,19,15,50,25.90
2012,07,19,15,51,25.80
2012,07,19,15,52,25.80
2012,07,19,15,53,25.80
2012,07,19,15,54,25.80
2012,07,19,15,55,25.90
2012,07,19,15,56,25.90
2012,07,19,15,57,25.90
2012,07,19,15,58,25.90
2012,07,19,15,59,25.90
2012,07,19,16,00,25.90
2012,07,19,16,01,26.00
2012,07,19,16,02,26.00
2012,07,19,16,03,26.10
2012,07,19,16,04,26.10
2012,07,19,16,05,26.10
2012,07,19,16,06,26.10
2012,07,19,16,07,26.10
2012,07,19,16,08,26.10
2012,07,19,16,09,26.20
2012,07,19,16,10,26.20
2012,07,19,16,11,26.20
2012,07,19,16,12,26.10
2012,07,19,16,13,26.00
2012,07,19,16,14,26.00
2012,07,19,16,15,25.90
2012,07,19,16,16,25.90
2012,07,19,16,17,25.90
2012,07,19,16,18,26.00
2012,07,19,16,19,26.00
2012,07,19,16,20,26.00
2012,07,19,16,21,26.00
2012,07,19,16,22,26.00
2012,07,19,16,23,26.00
2012,07,19,16,24,26.00
2012,07,19,16,25,26.10
2012,07,19,16,26,26.10
2012,07,19,16,27,26.10
2012,07,19,16,28,26.10
2012,07,19,16,29,26.10
2012,07,19,16,30,26.10
2012,07,19,16,31,26.10
2012,07,19,16,32,26.10
2012,07,19,16,33,26.10
2012,07,19,16,34,26.10
2012,07,19,16,35,26.20
2012,07,19,16,36,26.10
2012,07,19,16,37,26.10
2012,07,19,16,38,26.00
2012,07,19,16,39,26.00
2012,07,19,16,40,25.90
2012,07,19,16,41,25.90
2012,07,19,16,42,25.90
2012,07,19,16,43,25.90
2012,07,19,16,44,25.90
2012,07,19,16,45,25.90
2012,07,19,16,46,25.90
2012,07,19,16,47,25.90
2012,07,19,16,48,25.90
2012,07,19,16,49,25.90
2012,07,19,16,50,25.90
2012,07,19,16,51,25.90
2012,07,19,16,52,25.90
2012,07,19,16,53,25.90
2012,07,19,16,54,25.90
2012,07,19,16,55,25.90
2012,07,19,16,56,25.90
2012,07,19,16,57,25.80
2012,07,19,16,58,25.80
2012,07,19,16,59,25.80
2012,07,19,17,00,25.80
2012,07,19,17,01,25.70
2012,07,19,17,02,25.70
2012,07,19,17,03,25.70
2012,07,19,17,04,25.70
2012,07,19,17,05,25.60
2012,07,19,17,06,25.60
2012,07,19,17,07,25.70
2012,07,19,17,08,25.70
2012,07,19,17,09,25.70
2012,07,19,17,10,25.70
2012,07,19,17,11,25.70
2012,07,19,17,12,25.70
2012,07,19,17,13,25.70
2012,07,19,17,14,25.70
2012,07,19,17,15,25.70
2012,07,19,17,16,25.70
2012,07,19,17,17,25.70
2012,07,19,17,18,25.70
2012,07,19,17,19,25.60